Starlink 11469

operational
NORAD ID: 62227 Int'l Des: 2024-231 Owner: SPXS Country: US Constellation: starlink
LEOCIRCULAR

Über Starlink 11469

Beschreibung wird geladen...

Live-Position

3D-Globus wird geladen...

Nächste Überflüge

Höhenverlauf

Altitude vs Time

uPlot chart will show altitude changes over time

Zweizeiliger Elementsatz

1 62227U 24231K 26036.03705332 .00258668 00000-0 20665-2 0 9997
2 62227 53.1568 262.1828 0001133 110.8581 249.2559 15.69797251 68282
Epoch: 5. Feb. 2026 • Age: 22 hours

Aktueller Status

Höhe 364.0 km
Geschwindigkeit 7.70 km/s
Subsatellitenpunkt 53.25°N, 131.93°W
Startdatum 5. Dez. 2024
Alter 1.1 years
Typ internet

Technische Details

Klassifizierung Payload
Masse 960.00 kg
Trockenmasse 910.00 kg
Gesamtmasse 960.00 kg
Länge 0.30 m
Durchmesser 4.10 m
Spannweite 29.00 m
Form Box + pan
Hersteller SPXS
Bus-Typ Starlink V2MD
Phasenstatus In Orbit
Besitzer/Staat SPXS/US

Große Konstellationen

Loading constellations...